| time (UTC) | temp F | wind direction | speed MPH | gust MPH | rain 1hr in | rain 24hr in | rain mn in | humidity % | barometer mb |
| 20260502164056 | 69 | 27 | 9.0 | 20.0 | 0.00 | 0.00 | 0.00 | 49 | 1018.0 |
| 20260502163556 | 69 | 47 | 12.0 | 12.0 | 0.00 | 0.00 | 0.00 | 52 | 1018.0 |
| 20260502163057 | 69 | 315 | 6.0 | 13.0 | 0.00 | 0.00 | 0.00 | 51 | 1018.0 |
| 20260502162556 | 69 | 32 | 7.0 | 15.0 | 0.00 | 0.00 | 0.00 | 53 | 1018.0 |
| 20260502162056 | 69 | 16 | 2.0 | 11.0 | 0.00 | 0.00 | 0.00 | 56 | 1018.0 |
| 20260502161556 | 68 | 346 | 7.0 | 11.0 | 0.00 | 0.00 | 0.00 | 55 | 1018.0 |
| 20260502161056 | 68 | 1 | 5.0 | 15.0 | 0.00 | 0.00 | 0.00 | 57 | 1018.0 |
| 20260502160556 | 68 | 42 | 5.0 | 13.0 | 0.00 | 0.00 | 0.00 | 59 | 1017.0 |
| 20260502152056 | 65 | 19 | 4.0 | 19.0 | 0.00 | 0.00 | 0.00 | 67 | 1017.0 |
| 20260502151557 | 65 | 26 | 7.0 | 10.0 | 0.00 | 0.00 | 0.00 | 68 | 1018.0 |
| 20260502151056 | 65 | 19 | 9.0 | 12.0 | 0.00 | 0.00 | 0.00 | 68 | 1018.0 |
| 20260502150556 | 65 | 39 | 5.0 | 15.0 | 0.00 | 0.00 | 0.00 | 68 | 1018.0 |
| 20260502130558 | 57 | 11 | 5.0 | 7.0 | 0.00 | 0.00 | 0.00 | 87 | 1016.0 |
| 20260502123556 | 56 | 8 | 3.0 | 8.0 | 0.00 | 0.00 | 0.00 | 90 | 1016.0 |
| 20260502123056 | 55 | 24 | 3.0 | 5.0 | 0.00 | 0.00 | 0.00 | 91 | 1016.0 |
| 20260502122556 | 55 | 322 | 5.0 | 6.0 | 0.00 | 0.00 | 0.00 | 91 | 1016.0 |
| 20260502122056 | 55 | 36 | 5.0 | 7.0 | 0.00 | 0.00 | 0.00 | 92 | 1016.0 |
| 20260502121556 | 54 | 14 | 3.0 | 8.0 | 0.00 | 0.00 | 0.00 | 92 | 1015.0 |
| 20260502121056 | 54 | 352 | 4.0 | 7.0 | 0.00 | 0.00 | 0.00 | 92 | 1016.0 |
| 20260502120556 | 54 | 40 | 3.0 | 7.0 | 0.00 | 0.00 | 0.00 | 92 | 1015.0 |
| 20260502115556 | 55 | 358 | 5.0 | 7.0 | 0.00 | 0.00 | 0.00 | 91 | 1015.0 |
| 20260502115056 | 55 | 16 | 2.0 | 5.0 | 0.00 | 0.00 | 0.00 | 90 | 1015.0 |
| 20260502114557 | 55 | 329 | 4.0 | 7.0 | 0.00 | 0.00 | 0.00 | 90 | 1015.0 |
| 20260502114056 | 55 | 319 | 4.0 | 9.0 | 0.00 | 0.00 | 0.00 | 90 | 1015.0 |
| 20260502113556 | 54 | 357 | 2.0 | 9.0 | 0.00 | 0.00 | 0.00 | 90 | 1015.0 |
| 20260502113056 | 54 | 19 | 2.0 | 9.0 | 0.00 | 0.00 | 0.00 | 90 | 1015.0 |
| 20260502112556 | 55 | 344 | 5.0 | 7.0 | 0.00 | 0.00 | 0.00 | 90 | 1015.0 |
| 20260502112056 | 55 | 318 | 4.0 | 6.0 | 0.00 | 0.00 | 0.00 | 90 | 1015.0 |
| 20260502111556 | 55 | 352 | 6.0 | 6.0 | 0.00 | 0.00 | 0.00 | 90 | 1015.0 |
| 20260502111057 | 55 | 303 | 2.0 | 6.0 | 0.00 | 0.00 | 0.00 | 89 | 1015.0 |
| 20260502110556 | 55 | 14 | 3.0 | 6.0 | 0.00 | 0.00 | 0.00 | 89 | 1015.0 |
| 20260502110056 | 55 | 4 | 2.0 | 6.0 | 0.00 | 0.00 | 0.00 | 89 | 1015.0 |
| 20260502105556 | 55 | 42 | 4.0 | 7.0 | 0.00 | 0.00 | 0.00 | 89 | 1015.0 |
| 20260502105056 | 55 | 2 | 2.0 | 6.0 | 0.00 | 0.00 | 0.00 | 89 | 1015.0 |
| 20260502104556 | 55 | 355 | 2.0 | 5.0 | 0.00 | 0.00 | 0.00 | 88 | 1015.0 |
| 20260502104056 | 55 | 3 | 2.0 | 7.0 | 0.00 | 0.00 | 0.00 | 88 | 1015.0 |
| 20260502103556 | 55 | 344 | 3.0 | 4.0 | 0.00 | 0.00 | 0.00 | 86 | 1014.0 |
| 20260502103056 | 55 | 5 | 2.0 | 7.0 | 0.00 | 0.00 | 0.00 | 85 | 1014.0 |
| 20260502102559 | 55 | 28 | 5.0 | 9.0 | 0.00 | 0.00 | 0.00 | 86 | 1014.0 |
| 20260502102056 | 55 | 338 | 3.0 | 6.0 | 0.00 | 0.00 | 0.00 | 86 | 1014.0 |
| 20260502101557 | 55 | 28 | 0.0 | 3.0 | 0.00 | 0.00 | 0.00 | 86 | 1014.0 |
| 20260502101056 | 55 | 22 | 2.0 | 8.0 | 0.00 | 0.00 | 0.00 | 86 | 1014.0 |
| 20260502100558 | 55 | 24 | 4.0 | 8.0 | 0.00 | 0.00 | 0.00 | 86 | 1014.0 |
| 20260502091057 | 55 | 15 | 6.0 | 8.0 | 0.00 | 0.00 | 0.00 | 86 | 1013.0 |
| 20260502090556 | 55 | 36 | 7.0 | 12.0 | 0.00 | 0.00 | 0.00 | 86 | 1013.0 |
| 20260502071056 | 57 | 9 | 5.0 | 9.0 | 0.00 | 0.00 | 0.00 | 90 | 1013.0 |
| 20260502070556 | 57 | 306 | 2.0 | 9.0 | 0.00 | 0.00 | 0.00 | 90 | 1013.0 |
| 20260502070056 | 57 | 10 | 3.0 | 9.0 | 0.00 | 0.00 | 0.00 | 90 | 1013.0 |
| 20260502065556 | 57 | 11 | 3.0 | 7.0 | 0.00 | 0.00 | 0.00 | 91 | 1013.0 |
| 20260502065056 | 57 | 9 | 4.0 | 11.0 | 0.00 | 0.00 | 0.00 | 92 | 1013.0 |
| 20260502064556 | 57 | 353 | 7.0 | 12.0 | 0.00 | 0.00 | 0.00 | 92 | 1013.0 |
| 20260502064056 | 57 | 4 | 5.0 | 10.0 | 0.00 | 0.00 | 0.00 | 92 | 1013.0 |
| 20260502063557 | 57 | 331 | 6.0 | 9.0 | 0.00 | 0.00 | 0.00 | 92 | 1013.0 |
| 20260502063057 | 57 | 347 | 4.0 | 5.0 | 0.00 | 0.00 | 0.00 | 92 | 1013.0 |
| 20260502062556 | 57 | 19 | 2.0 | 9.0 | 0.00 | 0.00 | 0.00 | 92 | 1013.0 |
| 20260502062056 | 57 | 359 | 7.0 | 13.0 | 0.00 | 0.00 | 0.00 | 92 | 1013.0 |
| 20260502061557 | 57 | 14 | 8.0 | 11.0 | 0.00 | 0.00 | 0.00 | 92 | 1013.0 |
| 20260502061057 | 57 | 337 | 3.0 | 9.0 | 0.00 | 0.00 | 0.00 | 92 | 1013.0 |
| 20260502060556 | 57 | 341 | 3.0 | 8.0 | 0.00 | 0.00 | 0.00 | 92 | 1013.0 |
| 20260502060056 | 57 | 358 | 9.0 | 14.0 | 0.00 | 0.00 | 0.00 | 92 | 1013.0 |
| 20260502055556 | 57 | 5 | 3.0 | 6.0 | 0.00 | 0.00 | 0.00 | 91 | 1013.0 |
| 20260502055057 | 57 | 28 | 3.0 | 11.0 | 0.00 | 0.00 | 0.00 | 91 | 1013.0 |
| 20260502054556 | 57 | 45 | 7.0 | 12.0 | 0.00 | 0.00 | 0.00 | 92 | 1013.0 |
| 20260502054056 | 57 | 1 | 4.0 | 16.0 | 0.00 | 0.00 | 0.00 | 92 | 1013.0 |
| 20260502053556 | 57 | 4 | 4.0 | 9.0 | 0.00 | 0.00 | 0.00 | 92 | 1013.0 |
| 20260502053056 | 57 | 18 | 11.0 | 15.0 | 0.00 | 0.00 | 0.00 | 93 | 1013.0 |
| 20260502052556 | 57 | 18 | 9.0 | 12.0 | 0.00 | 0.00 | 0.00 | 93 | 1013.0 |
| 20260502052056 | 57 | 338 | 4.0 | 13.0 | 0.00 | 0.00 | 0.00 | 94 | 1013.0 |
| 20260502051556 | 57 | 6 | 9.0 | 13.0 | 0.00 | 0.00 | 0.00 | 94 | 1013.0 |
| 20260502051058 | 57 | 12 | 7.0 | 13.0 | 0.00 | 0.00 | 0.00 | 95 | 1013.0 |
| 20260502050557 | 57 | 339 | 10.0 | 15.0 | 0.00 | 0.00 | 0.00 | 95 | 1013.0 |
| 20260502050056 | 57 | 352 | 10.0 | 11.0 | 0.00 | 0.00 | 0.00 | 95 | 1013.0 |
| 20260502045556 | 57 | 359 | 4.0 | 13.0 | 0.00 | 0.00 | 0.00 | 95 | 1013.0 |
| 20260502045057 | 57 | 305 | 2.0 | 8.0 | 0.00 | 0.00 | 0.00 | 95 | 1013.0 |
| 20260502044556 | 56 | 359 | 5.0 | 14.0 | 0.00 | 0.00 | 0.00 | 95 | 1013.0 |
| 20260502044056 | 56 | 334 | 8.0 | 11.0 | 0.00 | 0.00 | 0.00 | 96 | 1013.0 |
| 20260502043556 | 56 | 15 | 10.0 | 12.0 | 0.00 | 0.00 | 0.00 | 96 | 1013.0 |
| 20260502043057 | 56 | 51 | 5.0 | 11.0 | 0.00 | 0.00 | 0.00 | 96 | 1013.0 |
| 20260502042557 | 56 | 302 | 5.0 | 13.0 | 0.00 | 0.00 | 0.00 | 96 | 1013.0 |
| 20260502042056 | 56 | 27 | 7.0 | 8.0 | 0.00 | 0.00 | 0.00 | 96 | 1013.0 |
| 20260502041556 | 56 | 349 | 7.0 | 11.0 | 0.00 | 0.00 | 0.00 | 96 | 1013.0 |
| 20260502041057 | 56 | 18 | 9.0 | 11.0 | 0.00 | 0.00 | 0.00 | 96 | 1013.0 |
| 20260502040556 | 56 | 13 | 4.0 | 9.0 | 0.00 | 0.00 | 0.00 | 96 | 1013.0 |
| 20260502040056 | 56 | 351 | 3.0 | 8.0 | 0.00 | 0.00 | 0.00 | 96 | 1013.0 |
| 20260502035556 | 57 | 24 | 8.0 | 10.0 | 0.00 | 0.00 | 0.00 | 96 | 1013.0 |
| 20260502035056 | 57 | 339 | 3.0 | 10.0 | 0.00 | 0.00 | 0.00 | 96 | 1012.0 |
| 20260502034556 | 57 | 347 | 5.0 | 8.0 | 0.00 | 0.00 | 0.00 | 96 | 1012.0 |
| 20260502034056 | 57 | 335 | 4.0 | 13.0 | 0.00 | 0.00 | 0.00 | 97 | 1012.0 |
| 20260502033556 | 57 | 359 | 5.0 | 15.0 | 0.00 | 0.00 | 0.00 | 97 | 1012.0 |
| 20260502033057 | 57 | 349 | 2.0 | 14.0 | 0.00 | 0.00 | 0.00 | 97 | 1012.0 |
| 20260502032556 | 57 | 359 | 9.0 | 13.0 | 0.00 | 0.00 | 0.00 | 97 | 1012.0 |
| 20260502032058 | 57 | 358 | 5.0 | 8.0 | 0.00 | 0.00 | 0.00 | 97 | 1011.0 |
| 20260502031556 | 57 | 355 | 5.0 | 10.0 | 0.00 | 0.00 | 0.00 | 97 | 1011.0 |
| 20260502031057 | 57 | 27 | 9.0 | 14.0 | 0.00 | 0.00 | 0.00 | 97 | 1011.0 |
| 20260502030556 | 57 | 346 | 5.0 | 15.0 | 0.00 | 0.00 | 0.00 | 97 | 1011.0 |
| 20260502030100 | 57 | 300 | 8.0 | 10.0 | 0.00 | 0.00 | 0.00 | 97 | 1011.0 |
| 20260502025557 | 57 | 23 | 5.0 | 16.0 | 0.00 | 0.00 | 0.00 | 97 | 1010.0 |
| 20260502025056 | 57 | 17 | 3.0 | 16.0 | 0.00 | 0.00 | 0.00 | 97 | 1010.0 |
| 20260502024557 | 58 | 19 | 7.0 | 14.0 | 0.00 | 0.00 | 0.00 | 97 | 1011.0 |
| 20260502024056 | 58 | 10 | 6.0 | 7.0 | 0.00 | 0.00 | 0.00 | 97 | 1011.0 |
| 20260502023557 | 58 | 37 | 3.0 | 16.0 | 0.00 | 0.00 | 0.00 | 97 | 1011.0 |
| 20260502023056 | 58 | 9 | 9.0 | 15.0 | 0.00 | 0.00 | 0.00 | 98 | 1011.0 |
| 20260502022556 | 59 | 5 | 6.0 | 10.0 | 0.00 | 0.00 | 0.00 | 98 | 1011.0 |
| 20260502022056 | 59 | 355 | 3.0 | 6.0 | 0.00 | 0.00 | 0.00 | 98 | 1011.0 |
| 20260502021557 | 59 | 319 | 5.0 | 9.0 | 0.00 | 0.00 | 0.00 | 98 | 1011.0 |
| 20260502021056 | 59 | 306 | 9.0 | 10.0 | 0.00 | 0.00 | 0.00 | 98 | 1011.0 |
| 20260502020556 | 59 | 328 | 3.0 | 7.0 | 0.00 | 0.00 | 0.00 | 98 | 1011.0 |
| 20260502020056 | 59 | 356 | 6.0 | 9.0 | 0.00 | 0.00 | 0.00 | 98 | 1011.0 |
| 20260502015557 | 59 | 349 | 6.0 | 9.0 | 0.00 | 0.00 | 0.00 | 98 | 1011.0 |
| 20260502015056 | 59 | 350 | 2.0 | 11.0 | 0.00 | 0.00 | 0.00 | 98 | 1011.0 |
| 20260502014556 | 59 | 5 | 4.0 | 10.0 | 0.00 | 0.00 | 0.00 | 98 | 1010.0 |
| 20260502014056 | 59 | 16 | 11.0 | 14.0 | 0.00 | 0.00 | 0.00 | 98 | 1010.0 |
| 20260502013556 | 59 | 345 | 5.0 | 9.0 | 0.00 | 0.00 | 0.00 | 98 | 1010.0 |
| 20260502013056 | 59 | 315 | 3.0 | 10.0 | 0.00 | 0.00 | 0.00 | 98 | 1010.0 |
| 20260502012556 | 59 | 344 | 5.0 | 11.0 | 0.00 | 0.00 | 0.00 | 98 | 1009.0 |
| 20260502012056 | 59 | 332 | 11.0 | 11.0 | 0.00 | 0.00 | 0.00 | 98 | 1009.0 |
| 20260502011556 | 59 | 1 | 7.0 | 11.0 | 0.00 | 0.00 | 0.00 | 98 | 1010.0 |
| 20260502011057 | 59 | 9 | 5.0 | 11.0 | 0.00 | 0.00 | 0.00 | 98 | 1010.0 |
| 20260502010556 | 59 | 295 | 2.0 | 6.0 | 0.00 | 0.00 | 0.00 | 98 | 1009.0 |
| 20260502010056 | 59 | 4 | 8.0 | 8.0 | 0.00 | 0.00 | 0.00 | 98 | 1009.0 |
| 20260502005556 | 59 | 350 | 10.0 | 13.0 | 0.00 | 0.00 | 0.00 | 98 | 1008.0 |
| 20260502005057 | 59 | 0 | 8.0 | 10.0 | 0.00 | 0.00 | 0.00 | 98 | 1008.0 |
| 20260502004556 | 59 | 2 | 3.0 | 7.0 | 0.00 | 0.00 | 0.00 | 98 | 1008.0 |
| 20260502004100 | 59 | 14 | 3.0 | 10.0 | 0.00 | 0.00 | 0.00 | 97 | 1008.0 |
| 20260502003556 | 59 | 42 | 8.0 | 11.0 | 0.00 | 0.00 | 0.00 | 97 | 1008.0 |
| 20260502003057 | 59 | 312 | 2.0 | 11.0 | 0.00 | 0.00 | 0.00 | 97 | 1008.0 |
| 20260502002558 | 59 | 31 | 7.0 | 10.0 | 0.00 | 0.00 | 0.00 | 97 | 1009.0 |
| 20260502002057 | 60 | 343 | 10.0 | 13.0 | 0.00 | 0.00 | 0.00 | 97 | 1009.0 |
| 20260502001556 | 60 | 338 | 5.0 | 13.0 | 0.00 | 0.00 | 0.00 | 97 | 1008.0 |
| 20260502001056 | 60 | 5 | 5.0 | 12.0 | 0.00 | 0.00 | 0.00 | 97 | 1008.0 |
| 20260502000556 | 60 | 340 | 4.0 | 10.0 | 0.00 | 0.00 | 0.00 | 97 | 1008.0 |
| 20260502000056 | 59 | 9 | 5.0 | 13.0 | 0.00 | 0.00 | 0.00 | 97 | 1008.0 |
| 20260501235556 | 60 | 10 | 7.0 | 11.0 | 0.00 | 0.00 | 0.00 | 97 | 1008.0 |
| 20260501235056 | 60 | 349 | 7.0 | 13.0 | 0.00 | 0.00 | 0.00 | 97 | 1008.0 |
| 20260501234557 | 60 | 27 | 4.0 | 9.0 | 0.00 | 0.00 | 0.00 | 97 | 1007.0 |
| 20260501234056 | 60 | 26 | 8.0 | 15.0 | 0.00 | 0.00 | 0.00 | 97 | 1007.0 |
| 20260501233556 | 60 | 12 | 8.0 | 17.0 | 0.00 | 0.00 | 0.00 | 97 | 1008.0 |
| 20260501233057 | 60 | 350 | 6.0 | 14.0 | 0.00 | 0.00 | 0.00 | 97 | 1007.0 |
| 20260501232557 | 60 | 13 | 12.0 | 16.0 | 0.00 | 0.00 | 0.00 | 97 | 1007.0 |
| 20260501232056 | 61 | 324 | 4.0 | 17.0 | 0.00 | 0.00 | 0.00 | 97 | 1007.0 |
| 20260501231557 | 61 | 0 | 8.0 | 14.0 | 0.00 | 0.00 | 0.00 | 98 | 1007.0 |
| 20260501231057 | 61 | 352 | 6.0 | 12.0 | 0.00 | 0.00 | 0.00 | 98 | 1007.0 |
| 20260501230556 | 61 | 349 | 7.0 | 14.0 | 0.00 | 0.00 | 0.00 | 98 | 1007.0 |
| 20260501230056 | 61 | 352 | 7.0 | 11.0 | 0.00 | 0.00 | 0.00 | 98 | 1007.0 |
| 20260501225556 | 61 | 9 | 6.0 | 12.0 | 0.00 | 0.00 | 0.00 | 98 | 1007.0 |
| 20260501225056 | 61 | 21 | 4.0 | 10.0 | 0.00 | 0.00 | 0.00 | 98 | 1007.0 |
| 20260501224556 | 61 | 36 | 6.0 | 11.0 | 0.00 | 0.00 | 0.00 | 98 | 1008.0 |
| 20260501224056 | 61 | 28 | 7.0 | 9.0 | 0.00 | 0.00 | 0.00 | 98 | 1008.0 |
| 20260501223557 | 62 | 44 | 13.0 | 13.0 | 0.00 | 0.00 | 0.00 | 98 | 1007.0 |
| 20260501223056 | 62 | 11 | 10.0 | 10.0 | 0.00 | 0.00 | 0.00 | 98 | 1007.0 |
| 20260501222556 | 62 | 353 | 3.0 | 9.0 | 0.00 | 0.00 | 0.00 | 98 | 1007.0 |
| 20260501222056 | 62 | 98 | 3.0 | 7.0 | 0.00 | 0.00 | 0.00 | 98 | 1007.0 |
| 20260501221557 | 62 | 33 | 4.0 | 10.0 | 0.00 | 0.00 | 0.00 | 98 | 1007.0 |
| 20260501221056 | 62 | 29 | 5.0 | 9.0 | 0.00 | 0.00 | 0.00 | 98 | 1008.0 |
| 20260501220556 | 62 | 28 | 5.0 | 9.0 | 0.00 | 0.00 | 0.00 | 98 | 1008.0 |
| 20260501220056 | 62 | 21 | 6.0 | 12.0 | 0.00 | 0.00 | 0.00 | 98 | 1008.0 |
| 20260501215135 | 62 | 6 | 3.0 | 7.0 | 0.00 | 0.00 | 0.00 | 98 | 1008.0 |
| 20260501214557 | 62 | 23 | 2.0 | 7.0 | 0.00 | 0.00 | 0.00 | 98 | 1008.0 |
| 20260501214056 | 62 | 59 | 3.0 | 5.0 | 0.00 | 0.00 | 0.00 | 98 | 1008.0 |
| 20260501213557 | 62 | 26 | 5.0 | 8.0 | 0.00 | 0.00 | 0.00 | 98 | 1007.0 |
| 20260501213056 | 62 | 347 | 3.0 | 4.0 | 0.00 | 0.00 | 0.00 | 98 | 1007.0 |
| 20260501212557 | 63 | 19 | 7.0 | 7.0 | 0.00 | 0.00 | 0.00 | 98 | 1007.0 |
| 20260501212056 | 62 | 354 | 3.0 | 3.0 | 0.00 | 0.00 | 0.00 | 98 | 1007.0 |
| 20260501211557 | 63 | 45 | 5.0 | 12.0 | 0.00 | 0.00 | 0.00 | 98 | 1007.0 |
| 20260501211056 | 63 | 43 | 2.0 | 7.0 | 0.00 | 0.00 | 0.00 | 98 | 1006.0 |
| 20260501210556 | 63 | 4 | 10.0 | 11.0 | 0.00 | 0.00 | 0.00 | 98 | 1008.0 |
| 20260501210056 | 63 | 15 | 2.0 | 7.0 | 0.00 | 0.00 | 0.00 | 98 | 1007.0 |
| 20260501205557 | 63 | 28 | 6.0 | 8.0 | 0.00 | 0.00 | 0.00 | 98 | 1007.0 |
| 20260501205056 | 63 | 13 | 3.0 | 8.0 | 0.00 | 0.00 | 0.00 | 98 | 1007.0 |
| 20260501204556 | 63 | 86 | 4.0 | 7.0 | 0.00 | 0.00 | 0.00 | 98 | 1007.0 |
| 20260501204057 | 63 | 10 | 4.0 | 10.0 | 0.00 | 0.00 | 0.00 | 98 | 1007.0 |
| 20260501203556 | 63 | 347 | 5.0 | 9.0 | 0.00 | 0.00 | 0.00 | 98 | 1006.0 |
| 20260501203056 | 63 | 39 | 4.0 | 9.0 | 0.00 | 0.00 | 0.00 | 98 | 1006.0 |
| 20260501202557 | 63 | 6 | 2.0 | 6.0 | 0.00 | 0.00 | 0.00 | 98 | 1006.0 |
| 20260501202057 | 63 | 49 | 3.0 | 5.0 | 0.00 | 0.00 | 0.00 | 98 | 1006.0 |
| 20260501201556 | 63 | 77 | 2.0 | 7.0 | 0.00 | 0.00 | 0.00 | 98 | 1006.0 |
| 20260501201057 | 63 | 4 | 4.0 | 13.0 | 0.00 | 0.00 | 0.00 | 98 | 1006.0 |
| 20260501200557 | 63 | 340 | 2.0 | 7.0 | 0.00 | 0.00 | 0.00 | 98 | 1006.0 |
| 20260501200056 | 63 | 15 | 3.0 | 6.0 | 0.00 | 0.00 | 0.00 | 98 | 1007.0 |
| 20260501195556 | 63 | 65 | 1.0 | 7.0 | 0.00 | 0.00 | 0.00 | 98 | 1007.0 |
| 20260501195057 | 63 | 46 | 3.0 | 5.0 | 0.00 | 0.00 | 0.00 | 98 | 1007.0 |
| 20260501194558 | 63 | 16 | 4.0 | 6.0 | 0.00 | 0.00 | 0.00 | 98 | 1006.0 |
| 20260501193609 | 63 | 30 | 6.0 | 10.0 | 0.00 | 0.00 | 0.00 | 98 | 1006.0 |
| 20260501193056 | 63 | 120 | 4.0 | 14.0 | 0.00 | 0.00 | 0.00 | 98 | 1006.0 |
| 20260501192556 | 63 | 74 | 4.0 | 7.0 | 0.00 | 0.00 | 0.00 | 98 | 1005.0 |
| 20260501192056 | 63 | 56 | 6.0 | 14.0 | 0.00 | 0.00 | 0.00 | 98 | 1005.0 |
| 20260501191557 | 63 | 50 | 3.0 | 14.0 | 0.00 | 0.00 | 0.00 | 97 | 1006.0 |
| 20260501191056 | 63 | 8 | 6.0 | 11.0 | 0.00 | 0.00 | 0.00 | 97 | 1006.0 |
| 20260501190556 | 63 | 18 | 4.0 | 8.0 | 0.00 | 0.00 | 0.00 | 98 | 1006.0 |
| 20260501190058 | 63 | 13 | 9.0 | 13.0 | 0.00 | 0.00 | 0.00 | 98 | 1008.0 |
| 20260501185556 | 63 | 317 | 6.0 | 12.0 | 0.00 | 0.00 | 0.00 | 98 | 1007.0 |
| 20260501185056 | 63 | 53 | 5.0 | 10.0 | 0.00 | 0.00 | 0.00 | 98 | 1007.0 |
| 20260501184557 | 63 | 128 | 5.0 | 8.0 | 0.00 | 0.00 | 0.00 | 98 | 1006.0 |
| 20260501184056 | 63 | 162 | 3.0 | 5.0 | 0.00 | 0.00 | 0.00 | 98 | 1007.0 |
| 20260501183556 | 63 | 300 | 2.0 | 16.0 | 0.00 | 0.00 | 0.00 | 98 | 1006.0 |
| 20260501183056 | 63 | 348 | 5.0 | 13.0 | 0.00 | 0.00 | 0.00 | 98 | 1007.0 |
| 20260501182557 | 63 | 25 | 5.0 | 9.0 | 0.00 | 0.00 | 0.00 | 98 | 1007.0 |
| 20260501182056 | 63 | 8 | 5.0 | 6.0 | 0.00 | 0.00 | 0.00 | 98 | 1007.0 |
| 20260501181556 | 63 | 333 | 3.0 | 10.0 | 0.00 | 0.00 | 0.00 | 98 | 1007.0 |
| 20260501181057 | 63 | 16 | 4.0 | 7.0 | 0.00 | 0.00 | 0.00 | 98 | 1007.0 |
| 20260501180556 | 63 | 338 | 7.0 | 11.0 | 0.00 | 0.00 | 0.00 | 98 | 1007.0 |
| 20260501180056 | 63 | 15 | 4.0 | 17.0 | 0.00 | 0.00 | 0.00 | 98 | 1007.0 |
| 20260501175557 | 63 | 19 | 4.0 | 11.0 | 0.00 | 0.00 | 0.00 | 98 | 1007.0 |
| 20260501175056 | 63 | 42 | 4.0 | 9.0 | 0.00 | 0.00 | 0.00 | 98 | 1007.0 |
| 20260501174557 | 63 | 37 | 3.0 | 7.0 | 0.00 | 0.00 | 0.00 | 98 | 1007.0 |
| 20260501174057 | 63 | 0 | 3.0 | 7.0 | 0.00 | 0.00 | 0.00 | 98 | 1007.0 |
| 20260501173556 | 63 | 53 | 4.0 | 11.0 | 0.00 | 0.00 | 0.00 | 98 | 1007.0 |